星链-11524 (STARLINK-11524)

导读 | 星芒AI

STARLINK-11524 是 SpaceX Starlink 项目中的一颗低轨通信卫星,属于第54组 Starlink 卫星群。该卫星于2023年发射,旨在为全球提供高速互联网服务。它运行在约550公里高度的近地轨道,采用先进推进系统,具备自主避障能力。Starlink 卫星群通过提供低延迟、高带宽的网络连接,支持偏远地区互联网接入,推动全球数字包容。STARLINK-11524 与其他 Starlink 卫星协同工作,增强网络覆盖与稳定性。

基本信息
目录编号:
62839
目录名称:
STARLINK-11524
国际标识:
2025-019L
轨道中心:
EARTH
卫星名称:
星链-11524
卫星全名:
星链-11524 (STARLINK-11524)
卫星状态:
在轨 (已飞行280 天)
发射日期:
2025-01-27 UTC
国别 :
美国 (US)
星等 :
--
轨道信息
数据来源 国际轨道数据
星历时间: 2025-11-02T18:36:04+0800
23小时前
查看轨道信息
半长轴: 6734.241km
偏心率: 0.0000872
轨道倾角: 43.000°
近地点辐角 229.963°
升交点赤经 353.374°
平近点角 130.117°
近地点: 355.518km
远地点: 356.694km
周期: 91.663分钟
每日圈数: 15.709771
详细信息
固有亮度:
5
最大亮度:
2.5
卫星平台:
Starlink V1.0
覆盖范围:
全球
运营商:
太空探索技术公司
运营商所在国:
美国
制造商(研发单位):
太空探索技术公司
制造商所在国:
美国
使用方式:
暂无
卫星简介
Starlink 计划是 SpaceX 推出的全球卫星互联网项目,通过发射低轨道卫星,为全球尤其是偏远地区提供高速、低延迟的互联网服务。自 2019 年起,Starlink 已部署数千颗卫星,旨在缩小全球数字鸿沟,推动互联网普及。该项目还为军事、航空等行业提供通信支持,带来广泛经济效益。
2D轨道图
3D轨道图
轨道高度分析图
轨道倾角分析图
轨道综合分析图
查看轨道综合分析图